Location: Slanting_Bridge
(35.6330°N, 80.9830°W)
Time: 01:53:06
(UTC-05:00)

Hamsat - Visible Passes

Search period start: 21 December 2014 00:00
Search period end: 31 December 2014 00:00
Orbit: 593 x 625 km, 97.6° (Epoch: 20 December)

Date Brightness Start Highest point End Pass type
(mag) Time Alt. Az. Time Alt. Az. Time Alt. Az.
21 Dec ? 05:59:53 10° NNE 06:04:13 76° ESE 06:08:29 10° S visible
21 Dec ? 18:27:12 10° SW 18:29:56 16° W 18:32:40 10° NW visible
22 Dec ? 06:13:45 10° N 06:18:04 73° WNW 06:22:19 10° SSW visible
22 Dec ? 18:42:42 10° WSW 18:43:55 11° W 18:45:09 10° WNW visible
23 Dec ? 04:54:14 10° ENE 04:55:43 12° E 04:57:12 10° ESE visible
23 Dec ? 06:27:44 10° N 06:31:54 49° WNW 06:36:00 10° SSW visible
24 Dec ? 05:06:53 10° NE 05:09:42 17° E 05:12:30 10° SE visible
24 Dec ? 06:41:48 10° N 06:45:41 33° WNW 06:49:31 10° SW visible
25 Dec ? 05:20:07 10° NE 05:23:39 25° E 05:27:08 10° SSE visible
25 Dec ? 06:56:01 10° NNW 06:59:26 24° WNW 07:02:49 10° WSW visible
25 Dec ? 17:45:07 10° S 17:49:17 47° W 17:53:29 10° NNW visible
26 Dec ? 05:33:36 10° NNE 05:37:34 35° E 05:41:28 10° SSE visible
26 Dec ? 17:59:18 10° SSW 18:03:10 32° W 18:07:05 10° NNW visible
27 Dec ? 05:47:15 10° NNE 05:51:27 53° E 05:55:35 10° S visible
27 Dec ? 18:13:42 10° SSW 18:17:05 22° W 18:20:31 10° NW visible
28 Dec ? 06:01:00 10° NNE 06:05:18 80° ESE 06:09:32 10° S visible
28 Dec ? 18:28:26 10° SW 18:31:02 16° W 18:33:39 10° NW visible
29 Dec ? 06:14:51 10° N 06:19:08 69° WNW 06:23:19 10° SSW visible
29 Dec ? 18:44:12 10° WSW 18:45:00 10° W 18:45:48 10° W visible
30 Dec ? 04:55:05 10° ENE 04:56:46 12° E 04:58:27 10° ESE visible
30 Dec ? 06:28:49 10° N 06:32:55 46° WNW 06:36:57 10° SSW visible
